Zurück zum Katalog

THURAYA 1

AktivKommunikationGEO
NORAD 26578·PAYLOAD·🇦🇪 UAE

Gestartet Oct 21, 2000 von Sea Launch Platform

Loading…

TLE

AktuellSource: Space-Track

Epoche: Sep 14, 2026, 13:11 UTC

1 26578U 00066A   26257.54942338 -.00000298  00000-0  00000+0 0  9999
2 26578   9.9565  21.8417 0003563   4.2594 312.7498  0.98988434 94042

Verfolge THURAYA 1 in Echtzeit mit AllMySat

Download on the App Store